Weather History for Aitkin, MN

Change the Weather History Date:

Monday, March 25, 2013

  Actual Average Record
Temperature  
Mean Temperature 26 °F -  
Max Temperature 37 °F 42 °F 65 °F (1968)
Min Temperature 15 °F 20 °F -12 °F (1965)
Degree Days  
Heating Degree Days 39    
Moisture  
Dew Point 12 °F    
Average Humidity 53    
Maximum Humidity 73    
Minimum Humidity 36    
Precipitation  
Precipitation 0.00 in - - ()
Sea Level Pressure  
Sea Level Pressure 30.13 in    
Wind  
Wind Speed 7 mph (NNW)    
Max Wind Speed 14 mph    
Max Gust Speed 20 mph    
Visibility 10 miles    
Events      
Averages and records for this station are not official NWS values.
T = Trace of Precipitation, MM = Missing Value Source: NWS Daily Summary

Daily Weather History Graph

Daily Weather History Graph

Search for Another Location

Airport:

Trip Planner

Search our weather history database for the weather conditions in past years. The results will help you decide how hot, cold, wet, or windy it might be!

Date:

Astronomy

Mar. 25, 2013 Rise Set
Actual Time 7:07 AM CDT 7:34 PM CDT
Civil Twilight 6:37 AM CDT 8:04 PM CDT
Nautical Twilight 6:01 AM CDT 8:40 PM CDT
Astronomical Twilight 5:24 AM CDT 9:17 PM CDT
Moon 6:03 PM CDT 5:56 AM CDT
Length of Visible Light 13h 27m
Length of Day
12h 27m
Waxing Gibbous, 96% of the Moon is Illuminated
Mar 25
Waxing Gibbous
Mar 27
Full
Apr 2
Last Quarter
Apr 10
New
Apr 18
First Quarter

Hourly Weather History & Observations

Time (CDT) Temp. Windchill Dew Point Humidity Pressure Visibility Wind Dir Wind Speed Gust Speed Precip Events Conditions
12:12 AM 26.6 °F 17.5 °F 15.8 °F 64% 30.07 in 10.0 mi North 9.2 mph - N/A   Overcast
12:33 AM 24.8 °F 16.9 °F 14.0 °F 64% 30.07 in 10.0 mi North 6.9 mph - N/A   Overcast
12:53 AM 24.8 °F 16.9 °F 14.0 °F 64% 30.07 in 10.0 mi North 6.9 mph - N/A   Overcast
1:12 AM 24.8 °F 16.9 °F 12.2 °F 59% 30.07 in 10.0 mi NNW 6.9 mph - N/A   Overcast
1:53 AM 24.8 °F 17.9 °F 12.2 °F 59% 30.07 in 10.0 mi NNW 5.8 mph - N/A   Scattered Clouds
2:12 AM 23.0 °F 14.7 °F 12.2 °F 63% 30.07 in 10.0 mi NNW 6.9 mph - N/A   Clear
2:33 AM 23.0 °F 15.8 °F 12.2 °F 63% 30.07 in 10.0 mi NNW 5.8 mph - N/A   Clear
2:53 AM 23.0 °F 14.7 °F 12.2 °F 63% 30.07 in 10.0 mi NNW 6.9 mph - N/A   Clear
3:12 AM 21.2 °F 12.6 °F 12.2 °F 68% 30.07 in 10.0 mi NNW 6.9 mph - N/A   Clear
3:32 AM 21.2 °F 13.6 °F 10.4 °F 63% 30.07 in 10.0 mi NNW 5.8 mph - N/A   Clear
3:53 AM 21.2 °F 13.6 °F 10.4 °F 63% 30.07 in 10.0 mi NNW 5.8 mph - N/A   Clear
4:12 AM 21.2 °F 13.6 °F 10.4 °F 63% 30.07 in 10.0 mi NNW 5.8 mph - N/A   Clear
4:32 AM 21.2 °F 13.6 °F 10.4 °F 63% 30.07 in 10.0 mi NNW 5.8 mph - N/A   Clear
4:53 AM 21.2 °F 12.6 °F 10.4 °F 63% 30.07 in 10.0 mi NNW 6.9 mph - N/A   Clear
5:32 AM 19.4 °F 11.5 °F 10.4 °F 68% 30.08 in 10.0 mi NNW 5.8 mph - N/A   Clear
5:53 AM 19.4 °F 12.8 °F 10.4 °F 68% 30.09 in 10.0 mi NNW 4.6 mph - N/A   Clear
6:12 AM 17.6 °F 12.3 °F 8.6 °F 68% 30.09 in 10.0 mi NNW 3.5 mph - N/A   Clear
6:32 AM 15.8 °F 10.2 °F 6.8 °F 68% 30.10 in 10.0 mi NNW 3.5 mph - N/A   Clear
6:53 AM 15.8 °F 10.2 °F 8.6 °F 73% 30.10 in 10.0 mi NNW 3.5 mph - N/A   Clear
7:12 AM 15.8 °F - 8.6 °F 73% 30.11 in 10.0 mi Calm Calm - N/A   Clear
7:32 AM 15.8 °F - 8.6 °F 73% 30.12 in 10.0 mi Calm Calm - N/A   Clear
7:52 AM 17.6 °F - 8.6 °F 68% 30.12 in 10.0 mi Calm Calm - N/A   Clear
8:12 AM 17.6 °F - 8.6 °F 68% 30.13 in 10.0 mi Calm Calm - N/A   Clear
8:52 AM 19.4 °F 14.3 °F 8.6 °F 63% 30.13 in 10.0 mi NNW 3.5 mph - N/A   Clear
9:12 AM 21.2 °F 16.4 °F 10.4 °F 63% 30.13 in 10.0 mi NW 3.5 mph - N/A   Clear
9:33 AM 21.2 °F 13.6 °F 10.4 °F 63% 30.14 in 10.0 mi NNW 5.8 mph - N/A   Clear
9:52 AM 24.8 °F 16.9 °F 10.4 °F 54% 30.14 in 10.0 mi NNW 6.9 mph - N/A   Clear
10:12 AM 26.6 °F 18.2 °F 10.4 °F 51% 30.14 in 10.0 mi NNW 8.1 mph - N/A   Clear
10:33 AM 26.6 °F 18.2 °F 12.2 °F 55% 30.14 in 10.0 mi NNW 8.1 mph - N/A   Clear
10:52 AM 26.6 °F 18.2 °F 12.2 °F 55% 30.15 in 10.0 mi North 8.1 mph - N/A   Clear
11:12 AM 28.4 °F 22.2 °F 12.2 °F 51% 30.14 in 10.0 mi NW 5.8 mph - N/A   Unknown
11:33 AM 30.2 °F 23.4 °F 12.2 °F 47% 30.15 in 10.0 mi NNW 6.9 mph - N/A   Unknown
11:52 AM 30.2 °F 21.3 °F 12.2 °F 47% 30.15 in 10.0 mi NNW 10.4 mph 16.1 mph N/A   Unknown
12:12 PM 32.0 °F 23.6 °F 14.0 °F 48% 30.15 in 10.0 mi NW 10.4 mph 16.1 mph N/A   Clear
12:33 PM 33.8 °F 25.3 °F 14.0 °F 44% 30.15 in 10.0 mi NNW 11.5 mph 16.1 mph N/A   Scattered Clouds
12:52 PM 33.8 °F 24.3 °F 15.8 °F 48% 30.15 in 10.0 mi NNW 13.8 mph 17.3 mph N/A   Scattered Clouds
1:12 PM 33.8 °F 25.3 °F 14.0 °F 44% 30.14 in 10.0 mi North 11.5 mph 19.6 mph N/A   Scattered Clouds
1:33 PM 33.8 °F 24.8 °F 14.0 °F 44% 30.14 in 10.0 mi NNW 12.7 mph 18.4 mph N/A   Scattered Clouds
1:52 PM 33.8 °F 25.3 °F 12.2 °F 41% 30.14 in 10.0 mi NNW 11.5 mph - N/A   Scattered Clouds
2:12 PM 33.8 °F 24.8 °F 12.2 °F 41% 30.14 in 10.0 mi North 12.7 mph 19.6 mph N/A   Clear
2:33 PM 33.8 °F 24.3 °F 14.0 °F 44% 30.13 in 10.0 mi NNW 13.8 mph - N/A   Clear
2:52 PM 35.6 °F 28.0 °F 12.2 °F 38% 30.13 in 10.0 mi NNW 10.4 mph - N/A   Clear
3:12 PM 35.6 °F 28.0 °F 14.0 °F 41% 30.13 in 10.0 mi North 10.4 mph - N/A   Clear
3:33 PM 35.6 °F 29.2 °F 14.0 °F 41% 30.12 in 10.0 mi NNW 8.1 mph - N/A   Clear
3:52 PM 35.6 °F 27.5 °F 14.0 °F 41% 30.12 in 10.0 mi NNW 11.5 mph - N/A   Clear
4:12 PM 37.4 °F 30.3 °F 12.2 °F 36% 30.12 in 10.0 mi NNW 10.4 mph - N/A   Scattered Clouds
4:33 PM 37.4 °F 30.8 °F 12.2 °F 36% 30.12 in 10.0 mi North 9.2 mph - N/A   Mostly Cloudy
4:53 PM 35.6 °F 27.5 °F 14.0 °F 41% 30.12 in 10.0 mi North 11.5 mph - N/A   Mostly Cloudy
5:12 PM 35.6 °F 28.0 °F 12.2 °F 38% 30.13 in 10.0 mi North 10.4 mph - N/A   Scattered Clouds
5:33 PM 35.6 °F 30.7 °F 12.2 °F 38% 30.13 in 10.0 mi NNW 5.8 mph - N/A   Mostly Cloudy
5:53 PM 35.6 °F 29.2 °F 12.2 °F 38% 30.13 in 10.0 mi North 8.1 mph - N/A   Scattered Clouds
6:12 PM 35.6 °F 29.2 °F 12.2 °F 38% 30.14 in 10.0 mi North 8.1 mph - N/A   Scattered Clouds
6:33 PM 35.6 °F 29.9 °F 12.2 °F 38% 30.14 in 10.0 mi NNW 6.9 mph - N/A   Scattered Clouds
6:52 PM 35.6 °F 32.8 °F 12.2 °F 38% 30.15 in 10.0 mi NNW 3.5 mph - N/A   Mostly Cloudy
7:12 PM 33.8 °F 29.6 °F 12.2 °F 41% 30.15 in 10.0 mi NNW 4.6 mph - N/A   Scattered Clouds
7:33 PM 32.0 °F - 12.2 °F 44% 30.16 in 10.0 mi Calm Calm - N/A   Clear
7:52 PM 30.2 °F - 14.0 °F 51% 30.17 in 10.0 mi Calm Calm - N/A   Clear
8:13 PM 28.4 °F - 14.0 °F 55% 30.17 in 10.0 mi Calm Calm - N/A   Scattered Clouds
8:33 PM 26.6 °F - 15.8 °F 64% 30.17 in 10.0 mi Calm Calm - N/A   Mostly Cloudy
8:52 PM 30.2 °F 25.4 °F 14.0 °F 51% 30.18 in 10.0 mi WNW 4.6 mph - N/A   Overcast
9:13 PM 32.0 °F 26.4 °F 14.0 °F 48% 30.18 in 10.0 mi WNW 5.8 mph - N/A   Overcast
9:33 PM 30.2 °F 25.4 °F 15.8 °F 55% 30.18 in 10.0 mi WNW 4.6 mph - N/A   Overcast
9:52 PM 30.2 °F 26.7 °F 14.0 °F 51% 30.18 in 10.0 mi NW 3.5 mph - N/A   Overcast
10:13 PM 30.2 °F 23.4 °F 14.0 °F 51% 30.19 in 10.0 mi NW 6.9 mph - N/A   Overcast
10:33 PM 30.2 °F 24.3 °F 14.0 °F 51% 30.19 in 10.0 mi NW 5.8 mph - N/A   Overcast
10:52 PM 30.2 °F 23.4 °F 12.2 °F 47% 30.19 in 10.0 mi NW 6.9 mph - N/A   Overcast
11:13 PM 30.2 °F 24.3 °F 12.2 °F 47% 30.19 in 10.0 mi NW 5.8 mph - N/A   Overcast
11:33 PM 30.2 °F 23.4 °F 12.2 °F 47% 30.20 in 10.0 mi NW 6.9 mph - N/A   Overcast
11:52 PM 30.2 °F 26.7 °F 12.2 °F 47% 30.20 in 10.0 mi WNW 3.5 mph - N/A   Overcast